User: anonymous   Login
Location: Partizánske
(48.6285°N, 18.3769°E)
Time: 18:27:04
(UTC+02:00)
Language:

Courier 1B - Orbit

View from above orbital plane
View from above orbital plane
View from above satellite
View from above satellite

Ground track
Ground track

The orbit data is extracted from the following two-line orbital elements,

1 00058U 60013A   22179.69778325  .00000100  00000-0  25065-4 0  9994
2 00058  28.3275 294.0827 0164979  86.0956 275.8432 13.46335518 38577
Epoch (UTC): 28 June 2022 16:44:48
Eccentricity: 0.0164979
inclination: 28.3275°
perigee height: 962 km
apogee height: 1209 km
right ascension of ascending node: 294.0827°
argument of perigee: 86.0956°
revolutions per day: 13.46335518
mean anomaly at epoch: 275.8432°
orbit number at epoch: 3857

The dashed part of the orbit path shows where the satellite is in the earth's shadow,  

DLR